EW5961 Weather Reports


Display with metric or nautical units.
time (UTC)temp
F
wind
direction
speed
MPH
gust
MPH
rain 1hr
in
rain 24hr
in
rain mn
in
humidity
%
barometer
mb
20181015231516 88 65 0.0 0.0 0.00 0.00 0.00 70 1010.1
20181015224517 89 52 0.0 0.0 0.00 0.00 0.00 69 1009.8
20181015221516 91 74 0.0 0.0 0.00 0.00 0.00 64 1009.7
20181015220012 92 47 0.0 0.0 0.00 0.00 0.00 60 1009.5
20181015214544 93 140 0.0 0.0 0.00 0.00 0.00 52 1009.4
20181015213016 93 117 0.0 0.0 0.00 0.00 0.00 53 1009.5
20181015211514 93 97 0.0 0.0 0.00 0.00 0.00 53 1009.6
20181015210008 94 103 0.0 0.0 0.00 0.00 0.00 52 1009.6
20181015204505 94 148 0.0 0.0 0.00 0.00 0.00 52 1009.7
20181015203002 93 117 0.0 0.0 0.00 0.00 0.00 53 1009.8
20181015201643 93 119 0.0 0.0 0.00 0.00 0.00 53 1010.0
20181015200230 94 108 0.0 0.0 0.00 0.00 0.00 50 1010.1
20181015194623 94 119 0.0 0.0 0.00 0.00 0.00 53 1010.2
20181015193145 93 88 0.0 0.0 0.00 0.00 0.00 53 1010.3
20181015191624 94 98 0.0 0.0 0.00 0.00 0.00 49 1010.5
20181015190105 93 119 0.0 0.0 0.00 0.00 0.00 50 1010.7
20181015184601 92 123 0.0 0.0 0.00 0.00 0.00 54 1010.9
20181015183117 91 148 0.0 0.0 0.00 0.00 0.00 59 1011.2
20181015181626 91 87 0.0 0.0 0.00 0.00 0.00 61 1011.4
20181015180125 92 94 0.0 0.0 0.00 0.00 0.00 59 1011.6
20181015174613 91 84 0.0 0.0 0.00 0.00 0.00 61 1012.0
20181015173114 91 113 0.0 0.0 0.00 0.00 0.00 60 1012.2
20181015171605 91 121 0.0 0.0 0.00 0.00 0.00 64 1012.6
20181015170040 88 111 0.0 0.0 0.00 0.00 0.00 65 1012.8
20181015163058 89 76 0.0 0.0 0.00 0.00 0.00 66 1013.2
20181015161620 88 98 0.0 0.0 0.00 0.00 0.00 67 1013.4
20181015160057 88 89 0.0 0.0 0.00 0.00 0.00 70 1013.5
20181015154532 89 67 0.0 0.0 0.00 0.00 0.00 70 1013.6
20181015153103 87 82 0.0 0.0 0.00 0.00 0.00 72 1013.6
20181015151559 86 128 0.0 0.0 0.00 0.00 0.00 75 1013.6
20181015150039 85 113 0.0 0.0 0.00 0.00 0.00 78 1013.6
20181015144542 85 121 0.0 0.0 0.00 0.00 0.00 79 1013.6
20181015143028 84 115 0.0 0.0 0.00 0.00 0.00 81 1013.4
20181015141522 84 138 0.0 0.0 0.00 0.00 0.00 82 1013.3
20181015140020 83 111 0.0 0.0 0.00 0.00 0.00 84 1013.3
20181015134506 81 116 0.0 0.0 0.00 0.00 0.00 88 1013.2
20181015133002 80 103 0.0 0.0 0.00 0.00 0.00 90 1013.0
20181015131613 79 88 0.0 0.0 0.00 0.00 0.00 92 1012.9
20181015130309 78 91 0.0 0.0 0.00 0.00 0.00 93 1012.8
20181015124700 77 102 0.0 0.0 0.00 0.00 0.00 94 1012.5
20181015123150 77 101 0.0 0.0 0.00 0.00 0.00 94 1012.5
20181015121657 77 124 0.0 0.0 0.00 0.00 0.00 94 1012.3
20181015120131 77 88 0.0 0.0 0.00 0.00 0.00 94 1012.3
20181015114720 77 92 0.0 0.0 0.00 0.00 0.00 94 1012.3
20181015113215 77 103 0.0 0.0 0.00 0.00 0.00 94 1012.1
20181015111644 77 98 0.0 0.0 0.00 0.00 0.00 94 1012.1
20181015110121 77 108 0.0 0.0 0.00 0.00 0.00 94 1012.0
20181015104712 77 94 0.0 0.0 0.00 0.00 0.00 94 1012.0
20181015103116 77 92 0.0 0.0 0.00 0.00 0.00 93 1011.9
20181015101624 77 95 0.0 0.0 0.00 0.00 0.00 93 1011.6
20181015100124 77 102 0.0 0.0 0.00 0.00 0.00 93 1011.4
20181015094605 77 94 0.0 0.0 0.00 0.00 0.00 93 1011.3
20181015091616 77 94 0.0 0.0 0.00 0.00 0.00 93 1011.5
20181015090113 77 102 0.0 0.0 0.00 0.00 0.00 93 1011.5
20181015084616 77 90 0.0 0.0 0.00 0.00 0.00 92 1011.4
20181015083110 77 112 0.0 0.0 0.00 0.00 0.00 92 1011.4
20181015081549 78 109 0.0 0.0 0.00 0.00 0.00 92 1011.5
20181015080118 78 124 0.0 0.0 0.00 0.00 0.00 92 1011.7
20181015074551 78 120 0.0 0.0 0.00 0.00 0.00 91 1011.8